Location: DARK SKY Beskydy - Park tmavé oblohy, www.darkskybeskydy.cz
(49.4926°N, 18.5016°E)
Time: 03:48:09
(UTC+02:00)

ISS - Pass Details

Date: 27 June 2024
Orbit: 409 x 424 km, 51.6° (Epoch: 18 July)

Event Time Altitude Azimuth Distance (km) Brightness Sun altitude
Exits shadow 03:45:31 10° 228° (SW) 1,505 -1.6 -7.3°
Reaches altitude 10° 03:45:35 10° 228° (SW) 1,480 -1.7 -7.3°
Maximum altitude 03:48:48 49° 152° (SSE) 541 -3.3 -7.0°
Drops below altitude 10° 03:52:11 - 76° (ENE) 1,543 0.1 -6.6°
Sets 03:54:12 0° 71° (ENE) 2,367 1.3 -6.4°
